[[{"header":{"parameterUnit":"m.s-1","parameterCategory":2,"la1":30.2991,"la2":30.254,"lo1":-89.0895,"lo2":-89.0444,"dy":0.0017,"dx":0.0017,"nx":28,"ny":28,"refTime":"2025-03-20T03:00:00:Z","depth":"0","parameterNumber":2,"parameterNumberName":"U-component_of_CURRENTS"},"data":[0,0,0,0,0,0,0,0,0,0,0,0,0,0,0,0,0,0,0,0,0,0,0,0,0,0,0,0,0,0,0,0,0,0,0,0,0,0,0,0,0,0,0,0,0,0,0,0,0,0,0,0,0,0,0,0,0,0,-0.2686,-0.2687,0,-0.2837,-0.2839,-0.2841,-0.2933,-0.2933,-0.2933,-0.2933,-0.3131,-0.3136,-0.3142,0,0,0,0,0,0,0,0,0,0,0,0,0,-0.2538,-0.2541,-0.2686,-0.2687,-0.2689,-0.2836,-0.2839,-0.2842,-0.2933,-0.2933,-0.2933,-0.2933,-0.313,-0.3136,-0.3142,0,0,0,0,0,0,0,0,0,0,0,0,0,-0.2642,-0.2542,-0.2686,-0.2748,-0.2755,-0.2836,-0.2839,-0.2842,-0.2933,-0.2933,-0.2933,-0.2933,-0.3127,-0.3135,-0.3143,-0.3195,0,0,-0.3168,-0.3171,0,0,0,0,0,0,0,0,-0.2636,-0.2649,-0.2737,-0.2744,-0.2751,-0.2861,-0.286,-0.2961,-0.2933,-0.2871,-0.2933,-0.2933,-0.3042,-0.3057,-0.3093,-0.3204,-0.3213,-0.3168,-0.3173,-0.3177,-0.3179,0,0,0,0,0,0,0,-0.2629,-0.2643,-0.2752,-0.2739,-0.2747,-0.2789,-0.2803,-0.288,-0.2961,-0.2877,-0.2882,-0.289,-0.3047,-0.3085,-0.3098,-0.3216,-0.3168,-0.3175,-0.318,-0.3183,-0.3377,-0.3378,0,0,0,0,0,0,-0.2596,-0.2636,-0.2747,-0.2756,-0.2686,-0.2791,-0.2808,-0.2831,-0.2959,-0.2976,-0.289,-0.2894,-0.3071,-0.3089,-0.3105,-0.3127,-0.3177,-0.3184,-0.3189,-0.3377,-0.3377,-0.3378,0,0,0,0,0,0,-0.2593,-0.2605,-0.2741,-0.2693,-0.2713,-0.2792,-0.2818,-0.2833,-0.287,-0.2967,-0.2987,-0.2909,-0.3072,-0.3094,-0.3193,-0.3137,-0.3188,-0.3195,-0.3377,-0.3377,-0.3378,-0.32,0,0,0,0,0,0,-0.2588,-0.2604,-0.2616,-0.2692,-0.2714,-0.2779,-0.2818,-0.2836,-0.2872,-0.2879,-0.2991,-0.3009,-0.3073,-0.3181,-0.3201,-0.3149,-0.3201,-0.3376,-0.3377,-0.3378,-0.3205,-0.3194,-0.3185,0,0,0,0,0,-0.2583,-0.2606,-0.2616,-0.263,-0.2727,-0.2778,-0.2795,-0.2854,-0.2873,-0.2888,-0.298,-0.3006,-0.3197,-0.3189,-0.3212,-0.316,-0.3376,-0.3377,-0.3377,-0.321,-0.3196,-0.3185,0,0,0,0,0,0,-0.2559,-0.2619,-0.2632,-0.2675,-0.2711,-0.2791,-0.2817,-0.2848,-0.2933,-0.2943,-0.3035,-0.3062,-0.3111,-0.3186,-0.3174,-0.3224,-0.3281,-0.3286,-0.3145,-0.3133,-0.3123,-0.3129,-0.3208,0,0,0,0,0,-0.2552,-0.2582,-0.2634,-0.2666,-0.2681,-0.2744,-0.2774,-0.2805,-0.2882,-0.2918,-0.2991,-0.3074,-0.3134,-0.3175,-0.3246,-0.3296,-0.3333,-0.3276,-0.3265,-0.3255,-0.3281,-0.3285,-0.3276,-0.338,-0.338,-0.338,0,0,-0.2552,-0.2587,-0.2605,-0.266,-0.2699,-0.2731,-0.2764,-0.2801,-0.2824,-0.2928,-0.2992,-0.3043,-0.3143,-0.3184,-0.321,-0.3239,-0.3238,-0.3256,-0.3247,-0.3279,-0.3285,-0.3274,-0.3265,-0.3381,-0.3381,-0.3381,0,0,-0.2562,-0.2592,-0.2617,-0.2645,-0.2685,-0.2719,-0.272,-0.2784,-0.2808,-0.287,-0.2933,-0.2961,-0.3081,-0.3116,-0.3155,-0.3142,-0.318,-0.3154,-0.3108,-0.3109,-0.3099,-0.3092,-0.3077,-0.3069,-0.3151,-0.315,-0.315,0,-0.2559,-0.2596,-0.263,-0.2656,-0.2679,-0.2707,-0.2732,-0.2761,-0.2845,-0.2869,-0.2872,-0.2997,-0.304,-0.309,-0.3069,-0.3107,-0.3131,-0.313,-0.3089,-0.3083,-0.3078,-0.3066,-0.3059,-0.3142,-0.3143,-0.3144,-0.3145,0,-0.2585,-0.2612,-0.2627,-0.2667,-0.2694,-0.2715,-0.2746,-0.2769,-0.2784,-0.2814,-0.2849,-0.2902,-0.2981,-0.2958,-0.301,-0.2995,-0.3026,-0.306,-0.3102,-0.3055,-0.3047,-0.3043,-0.313,-0.3133,-0.3135,-0.3137,0,0,-0.2581,-0.2636,-0.2638,-0.2654,-0.2698,-0.2721,-0.2746,-0.2781,-0.2806,-0.2819,-0.2851,-0.287,-0.2882,-0.293,-0.2957,-0.294,-0.2865,-0.2982,-0.2986,-0.2935,-0.2865,-0.2785,-0.2775,-0.2893,-0.2893,-0.2892,-0.2854,0,-0.2588,-0.2627,-0.2658,-0.2689,-0.2708,-0.274,-0.2768,-0.2799,-0.2819,-0.2854,-0.2849,-0.2891,-0.2876,-0.2893,-0.2867,-0.2903,-0.286,-0.2873,-0.2951,-0.2954,-0.2861,-0.2769,-0.2651,-0.26,-0.2851,-0.2851,-0.285,0,-0.2592,-0.2621,-0.265,-0.2698,-0.2711,-0.2733,-0.2779,-0.2807,-0.2852,-0.287,-0.2887,-0.2914,-0.2905,-0.2884,-0.2872,-0.2891,-0.2863,-0.2855,-0.2854,-0.2853,-0.2868,-0.2704,-0.2586,-0.2552,-0.2846,-0.2846,-0.2847,0,-0.2552,-0.2608,-0.2627,-0.2644,-0.2706,-0.2725,-0.2755,-0.2807,-0.2835,-0.288,-0.2906,-0.292,-0.2924,-0.2904,-0.2869,-0.2884,-0.2844,-0.2867,-0.2757,-0.2752,-0.2707,-0.2697,-0.2544,-0.2823,-0.2823,-0.2823,-0.2823,0,-0.2534,-0.2545,-0.2609,-0.2617,-0.2645,-0.27,-0.2733,-0.2771,-0.2833,-0.2859,-0.2904,-0.292,-0.2929,-0.2913,-0.2878,-0.2797,-0.2844,-0.2733,-0.273,-0.2638,-0.2623,-0.2644,-0.2684,-0.2822,-0.2822,-0.2822,-0.2823,0,-0.2464,-0.2512,-0.2533,-0.2601,-0.262,-0.2633,-0.2707,-0.2729,-0.2805,-0.2841,-0.2856,-0.292,-0.2902,-0.2887,-0.2855,-0.2794,-0.2683,-0.269,-0.2567,-0.2548,-0.2413,-0.2451,-0.2382,-0.2312,-0.2571,-0.2568,-0.2566,0,-0.2424,-0.2429,-0.2495,-0.2501,-0.2523,-0.2562,-0.2585,-0.2685,-0.2715,-0.2824,-0.2826,-0.2857,-0.2843,-0.2774,-0.2682,-0.2592,-0.2588,-0.2422,-0.241,-0.2363,-0.2404,-0.2443,-0.2392,-0.227,-0.2265,-0.2262,-0.2259,0,-0.2336,-0.236,-0.2378,-0.2397,-0.2419,-0.2451,-0.2496,-0.253,-0.264,-0.2687,-0.2734,-0.2746,-0.2704,-0.2573,-0.2464,-0.2391,-0.236,-0.2347,-0.2334,-0.2175,-0.2176,-0.2121,-0.2342,-0.2228,-0.2232,-0.2234,-0.2235,-0.2237,-0.225,-0.224,-0.2264,-0.2266,-0.229,-0.2303,-0.229,-0.2363,-0.2404,-0.244,-0.2552,-0.2533,-0.2463,-0.2303,-0.2221,-0.2042,-0.214,-0.1973,-0.2026,-0.2072,-0.1982,-0.2118,-0.1983,-0.1985,-0.1986,-0.1988,-0.1989,0,-0.2131,-0.2131,-0.2125,-0.2127,-0.2092,-0.2156,-0.219,-0.2158,-0.2152,-0.2228,-0.2246,-0.2225,-0.2081,-0.2024,-0.1864,-0.1754,-0.1712,-0.1709,-0.1739,-0.1704,-0.1834,-0.1795,-0.1569,-0.1569,-0.1569,-0.1569,-0.1569,-0.1569,-0.2069,-0.202,-0.2016,-0.1918,-0.1911,-0.1831,-0.182,-0.1803,-0.1824,-0.181,-0.184,-0.191,-0.1904,-0.1936,-0.1745,-0.1631,-0.1593,-0.1541,-0.1582,-0.1686,-0.1715,-0.1743,-0.171,-0.147,-0.147,-0.1367,-0.1366,-0.1366]},{"header":{"parameterUnit":"m.s-1","parameterCategory":2,"la1":30.2991,"la2":30.254,"lo1":-89.0895,"lo2":-89.0444,"dy":0.0017,"dx":0.0017,"nx":28,"ny":28,"refTime":"2025-03-20T03:00:00:Z","depth":"0","parameterNumber":3,"parameterNumberName":"V-component_of_CURRENTS"},"data":[0,0,0,0,0,0,0,0,0,0,0,0,0,0,0,0,0,0,0,0,0,0,0,0,0,0,0,0,0,0,0,0,0,0,0,0,0,0,0,0,0,0,0,0,0,0,0,0,0,0,0,0,0,0,0,0,0,0,-0.029,-0.0289,0,-0.0191,-0.019,-0.0189,-0.0136,-0.0136,-0.0136,-0.0135,-0.0157,-0.0158,-0.0159,0,0,0,0,0,0,0,0,0,0,0,0,0,-0.0339,-0.0339,-0.029,-0.0289,-0.0287,-0.0192,-0.019,-0.0189,-0.0136,-0.0136,-0.0136,-0.0135,-0.0157,-0.0158,-0.0159,0,0,0,0,0,0,0,0,0,0,0,0,0,-0.0289,-0.0339,-0.029,-0.0248,-0.0243,-0.0192,-0.019,-0.0189,-0.0136,-0.0136,-0.0135,-0.0135,-0.0156,-0.0158,-0.0159,-0.0175,0,0,-0.0163,-0.0163,0,0,0,0,0,0,0,0,-0.0292,-0.0287,-0.0256,-0.0251,-0.0245,-0.0174,-0.0215,-0.019,-0.0136,-0.0179,-0.0135,-0.0135,-0.0173,-0.0173,-0.0156,-0.0176,-0.0177,-0.0163,-0.0164,-0.0164,-0.0164,0,0,0,0,0,0,0,-0.0296,-0.0291,-0.0253,-0.0254,-0.0248,-0.0202,-0.0195,-0.0209,-0.0183,-0.0175,-0.0171,-0.0157,-0.0171,-0.0155,-0.0157,-0.0177,-0.0163,-0.0164,-0.0165,-0.0165,-0.0171,-0.0171,0,0,0,0,0,0,-0.031,-0.0295,-0.0256,-0.025,-0.0266,-0.0201,-0.0194,-0.0199,-0.018,-0.0175,-0.0157,-0.0155,-0.0153,-0.0155,-0.0157,-0.017,-0.0164,-0.0165,-0.0166,-0.0172,-0.0171,-0.017,0,0,0,0,0,0,-0.0311,-0.0308,-0.026,-0.0267,-0.0258,-0.0202,-0.0207,-0.0197,-0.0179,-0.0165,-0.0163,-0.0149,-0.0153,-0.0156,-0.0161,-0.0171,-0.0166,-0.0167,-0.0172,-0.0172,-0.0171,-0.02,0,0,0,0,0,0,-0.0314,-0.031,-0.0321,-0.0269,-0.0258,-0.0242,-0.0207,-0.0195,-0.017,-0.0166,-0.0158,-0.0159,-0.0153,-0.0159,-0.0163,-0.0173,-0.0168,-0.0173,-0.0172,-0.0171,-0.02,-0.0201,-0.0201,0,0,0,0,0,-0.0316,-0.0339,-0.0323,-0.0318,-0.0275,-0.0243,-0.0234,-0.0192,-0.0171,-0.0173,-0.0153,-0.0159,-0.0154,-0.016,-0.0164,-0.0175,-0.0174,-0.0172,-0.0171,-0.02,-0.02,-0.0201,0,0,0,0,0,0,-0.0365,-0.0333,-0.0315,-0.0327,-0.0291,-0.0233,-0.0229,-0.0196,-0.0179,-0.0178,-0.016,-0.0161,-0.0164,-0.0163,-0.017,-0.0168,-0.0162,-0.0161,-0.0182,-0.0183,-0.0183,-0.0197,-0.0169,0,0,0,0,0,-0.0382,-0.0392,-0.0345,-0.0354,-0.034,-0.0284,-0.0265,-0.0237,-0.0209,-0.0199,-0.0185,-0.0172,-0.0161,-0.0168,-0.016,-0.0174,-0.0145,-0.0177,-0.0178,-0.0179,-0.0189,-0.0132,-0.0128,-0.0166,-0.0166,-0.0166,0,0,-0.0401,-0.0385,-0.039,-0.0364,-0.0333,-0.0325,-0.0273,-0.0253,-0.0244,-0.021,-0.0204,-0.0178,-0.0162,-0.0162,-0.0165,-0.0167,-0.015,-0.0177,-0.0178,-0.0188,-0.013,-0.0126,-0.0123,-0.0165,-0.0165,-0.0165,0,0,-0.044,-0.0433,-0.0448,-0.0428,-0.039,-0.0358,-0.0355,-0.0302,-0.028,-0.0268,-0.0229,-0.0203,-0.0203,-0.0178,-0.0169,-0.017,-0.0149,-0.0169,-0.0196,-0.014,-0.0137,-0.0133,-0.0086,-0.0078,-0.0177,-0.0177,-0.0177,0,-0.0463,-0.0478,-0.0446,-0.0451,-0.044,-0.0379,-0.0386,-0.0357,-0.031,-0.0294,-0.0277,-0.0221,-0.0207,-0.0189,-0.0182,-0.0174,-0.014,-0.02,-0.0142,-0.0138,-0.0134,-0.0086,-0.0077,-0.0178,-0.0178,-0.0178,-0.0178,0,-0.0504,-0.0517,-0.0524,-0.0516,-0.0502,-0.0501,-0.0455,-0.0437,-0.0401,-0.0359,-0.0324,-0.0278,-0.0244,-0.0228,-0.0211,-0.0177,-0.016,-0.0143,-0.0145,-0.0132,-0.0082,-0.0072,-0.018,-0.018,-0.0179,-0.0179,0,0,-0.0551,-0.0555,-0.0556,-0.0569,-0.0539,-0.0534,-0.0524,-0.0492,-0.048,-0.0424,-0.0398,-0.0349,-0.0301,-0.0286,-0.0244,-0.0197,-0.0133,-0.0167,-0.0163,-0.0128,-0.0012,0.0024,0.0039,-0.0105,-0.0104,-0.0103,0.0014,0,-0.0589,-0.0626,-0.0611,-0.0642,-0.0657,-0.0613,-0.0609,-0.0573,-0.0528,-0.049,-0.0414,-0.0378,-0.033,-0.0308,-0.0251,-0.0161,-0.011,-0.0167,-0.0023,-0.0019,0.0006,0.0051,0.0087,0.0196,0.0024,0.0025,0.0026,0,-0.0627,-0.0651,-0.0691,-0.0711,-0.0712,-0.0718,-0.0699,-0.0687,-0.0617,-0.058,-0.0515,-0.0448,-0.0367,-0.0327,-0.0169,-0.0207,-0.0118,-0.0045,-0.0038,0.0009,0.0036,0.0157,0.0221,0.04,0.0042,0.0041,0.0039,0,-0.0675,-0.0706,-0.0745,-0.0752,-0.0759,-0.0766,-0.0761,-0.0712,-0.0704,-0.0629,-0.0603,-0.0493,-0.0435,-0.0305,-0.0151,-0.0156,0.0027,0.004,0.0157,0.0161,0.0226,0.0233,0.0472,0.015,0.015,0.0149,0.0149,0,-0.0722,-0.0754,-0.0773,-0.0798,-0.0844,-0.0821,-0.0844,-0.0818,-0.0774,-0.0764,-0.0651,-0.061,-0.0425,-0.0297,-0.0159,0.0035,0.0027,0.0163,0.0199,0.0218,0.0222,0.0407,0.0475,0.0154,0.0153,0.0152,0.0151,0,-0.0766,-0.0776,-0.0832,-0.086,-0.087,-0.0902,-0.0916,-0.0926,-0.0869,-0.0848,-0.0827,-0.0687,-0.0509,-0.0319,-0.0101,0.0023,0.0318,0.0265,0.0271,0.0306,0.0576,0.064,0.0893,0.0997,0.042,0.0421,0.0423,0,-0.0791,-0.0823,-0.0888,-0.0929,-0.0945,-0.0984,-0.1008,-0.098,-0.0985,-0.0894,-0.0888,-0.0717,-0.0585,-0.0244,0.001,0.0274,0.0407,0.0451,0.0448,0.0612,0.0711,0.0756,0.0828,0.0529,0.0531,0.0533,0.0535,0,-0.0844,-0.0866,-0.0917,-0.1004,-0.1051,-0.1102,-0.1129,-0.1148,-0.1101,-0.1058,-0.0967,-0.0849,-0.0505,-0.0183,0.0163,0.0324,0.0598,0.0494,0.0678,0.0831,0.0885,0.0994,0.0423,0.055,0.0549,0.0548,0.0547,0.0546,-0.0879,-0.0933,-0.1001,-0.1081,-0.1142,-0.1203,-0.1239,-0.1245,-0.1242,-0.1161,-0.1038,-0.0829,-0.0346,0.0157,0.035,0.0782,0.075,0.0912,0.098,0.1014,0.1113,0.0568,0.0724,0.0724,0.0723,0.0723,0.0722,0,-0.0926,-0.0986,-0.1071,-0.1168,-0.1245,-0.1254,-0.1307,-0.1316,-0.1307,-0.1184,-0.1059,-0.0548,-0.006,0.0398,0.1003,0.1251,0.1312,0.1379,0.1469,0.1522,0.1064,0.1067,0.1288,0.1288,0.1288,0.1288,0.1288,0.1287,-0.0952,-0.1044,-0.1091,-0.1229,-0.1293,-0.1368,-0.1394,-0.1383,-0.1305,-0.1076,-0.0803,-0.059,0.0098,0.1087,0.1665,0.1724,0.1945,0.1931,0.2046,0.1741,0.1703,0.1666,0.1689,0.2037,0.2038,0.2491,0.2495,0.2498]}],[{"header":{"parameterUnit":"m.s-1","parameterCategory":2,"la1":30.2991,"la2":30.254,"lo1":-89.0895,"lo2":-89.0444,"dy":0.0017,"dx":0.0017,"nx":28,"ny":28,"refTime":"2025-03-20T03:00:00:Z","depth":"2","parameterNumber":2,"parameterNumberName":"U-component_of_CURRENTS"},"data":[0,0,0,0,0,0,0,0,0,0,0,0,0,0,0,0,0,0,0,0,0,0,0,0,0,0,0,0,0,0,0,0,0,0,0,0,0,0,0,0,0,0,0,0,0,0,0,0,0,0,0,0,0,0,0,0,0,0,-0.2347,-0.2348,0,-0.2394,-0.2394,-0.2394,-0.237,-0.2369,-0.2369,-0.2368,-0.2338,-0.2338,-0.2338,0,0,0,0,0,0,0,0,0,0,0,0,0,-0.2218,-0.222,-0.2347,-0.2348,-0.2349,-0.2394,-0.2394,-0.2394,-0.237,-0.2369,-0.2368,-0.2367,-0.2338,-0.2338,-0.2338,0,0,0,0,0,0,0,0,0,0,0,0,0,-0.2266,-0.2221,-0.2347,-0.2346,-0.2346,-0.2394,-0.2394,-0.2394,-0.2371,-0.2369,-0.2368,-0.2367,-0.2338,-0.2338,-0.2338,-0.2363,0,0,-0.2338,-0.2338,0,0,0,0,0,0,0,0,-0.2263,-0.227,-0.2345,-0.2346,-0.2347,-0.2379,-0.2338,-0.2382,-0.2371,-0.2357,-0.2368,-0.2366,-0.2349,-0.2348,-0.2354,-0.2362,-0.2361,-0.2338,-0.2338,-0.2338,-0.2338,0,0,0,0,0,0,0,-0.226,-0.2268,-0.2361,-0.2346,-0.2347,-0.2337,-0.2342,-0.2346,-0.2354,-0.2358,-0.2357,-0.237,-0.2348,-0.2354,-0.2353,-0.236,-0.2338,-0.2338,-0.2338,-0.2338,-0.2449,-0.2451,0,0,0,0,0,0,-0.2266,-0.2265,-0.2359,-0.2363,-0.2306,-0.2341,-0.2346,-0.2366,-0.2356,-0.2355,-0.2371,-0.2369,-0.2355,-0.2353,-0.2352,-0.2382,-0.2338,-0.2338,-0.2338,-0.2446,-0.2449,-0.2452,0,0,0,0,0,0,-0.2263,-0.2274,-0.2358,-0.2318,-0.2328,-0.2345,-0.2367,-0.2368,-0.2377,-0.2368,-0.2364,-0.238,-0.2354,-0.2352,-0.2378,-0.238,-0.2338,-0.2338,-0.2442,-0.2447,-0.2451,-0.2442,0,0,0,0,0,0,-0.226,-0.2273,-0.2285,-0.2319,-0.2331,-0.2388,-0.2369,-0.237,-0.2389,-0.2386,-0.2374,-0.237,-0.2353,-0.2379,-0.2378,-0.238,-0.2338,-0.2439,-0.2444,-0.245,-0.2438,-0.2445,-0.2451,0,0,0,0,0,-0.2255,-0.2275,-0.2285,-0.2296,-0.2348,-0.239,-0.2394,-0.2398,-0.2391,-0.24,-0.2407,-0.2371,-0.2413,-0.2381,-0.238,-0.2381,-0.2436,-0.2443,-0.2449,-0.2435,-0.2444,-0.2451,0,0,0,0,0,0,-0.2224,-0.2276,-0.2287,-0.2323,-0.2357,-0.2387,-0.2395,-0.2407,-0.2421,-0.2413,-0.2401,-0.2399,-0.2428,-0.2426,-0.2391,-0.244,-0.2422,-0.2429,-0.2412,-0.242,-0.2426,-0.2407,-0.2338,0,0,0,0,0,-0.2227,-0.2254,-0.2303,-0.2331,-0.2347,-0.2375,-0.2391,-0.24,-0.2421,-0.2425,-0.2426,-0.2438,-0.2458,-0.2454,-0.2474,-0.2491,-0.2477,-0.2501,-0.2507,-0.2512,-0.2503,-0.2503,-0.2507,-0.2474,-0.2474,-0.2474,0,0,-0.2225,-0.2256,-0.2273,-0.2326,-0.2347,-0.2376,-0.2379,-0.2408,-0.2428,-0.242,-0.2443,-0.2462,-0.2476,-0.25,-0.2511,-0.2489,-0.2519,-0.252,-0.2523,-0.2512,-0.251,-0.2512,-0.2514,-0.2479,-0.2478,-0.2477,0,0,-0.2231,-0.2261,-0.2283,-0.2314,-0.2356,-0.2377,-0.239,-0.2431,-0.2439,-0.2475,-0.2484,-0.2506,-0.2532,-0.2538,-0.2544,-0.2605,-0.2564,-0.2623,-0.2613,-0.2614,-0.2614,-0.2615,-0.26,-0.26,-0.261,-0.261,-0.261,0,-0.2226,-0.2263,-0.2296,-0.2324,-0.2348,-0.238,-0.2407,-0.2428,-0.2473,-0.2488,-0.2481,-0.2543,-0.2544,-0.2574,-0.2593,-0.2609,-0.2604,-0.2568,-0.2615,-0.2615,-0.2616,-0.2601,-0.26,-0.261,-0.261,-0.261,-0.261,0,-0.2248,-0.2277,-0.2292,-0.2338,-0.2369,-0.2397,-0.2438,-0.2466,-0.2482,-0.2503,-0.2546,-0.2561,-0.2591,-0.2604,-0.2605,-0.2628,-0.2622,-0.2626,-0.2575,-0.2617,-0.2601,-0.2599,-0.2611,-0.2611,-0.2611,-0.2611,0,0,-0.2236,-0.2296,-0.23,-0.232,-0.2378,-0.2405,-0.2443,-0.2489,-0.2513,-0.2541,-0.257,-0.26,-0.2608,-0.2621,-0.2634,-0.2625,-0.2618,-0.2622,-0.2622,-0.2572,-0.2609,-0.2528,-0.2518,-0.2626,-0.2626,-0.2626,-0.2593,0,-0.2241,-0.2284,-0.2319,-0.2359,-0.2384,-0.2428,-0.2465,-0.2508,-0.2538,-0.2575,-0.2587,-0.2621,-0.2615,-0.2629,-0.2622,-0.2638,-0.2617,-0.2626,-0.2608,-0.2607,-0.2499,-0.2515,-0.233,-0.2279,-0.2592,-0.2592,-0.2592,0,-0.2242,-0.2275,-0.2311,-0.237,-0.2386,-0.2417,-0.2477,-0.2514,-0.257,-0.2593,-0.262,-0.2641,-0.2655,-0.2639,-0.2637,-0.2645,-0.2621,-0.2613,-0.2612,-0.2533,-0.2523,-0.2294,-0.2265,-0.259,-0.259,-0.259,-0.259,0,-0.2199,-0.2264,-0.2288,-0.231,-0.2385,-0.241,-0.2449,-0.2514,-0.2547,-0.2602,-0.2628,-0.2654,-0.2665,-0.2652,-0.263,-0.2639,-0.2612,-0.2622,-0.252,-0.2514,-0.235,-0.2329,-0.2596,-0.2596,-0.2596,-0.2596,-0.2597,0,-0.2179,-0.2196,-0.227,-0.2283,-0.2319,-0.2384,-0.2426,-0.2473,-0.2542,-0.257,-0.2626,-0.2644,-0.2667,-0.2659,-0.2635,-0.2565,-0.261,-0.2509,-0.2497,-0.2345,-0.2325,-0.2595,-0.2596,-0.2595,-0.2595,-0.2596,-0.2596,0,-0.2109,-0.216,-0.219,-0.2269,-0.2294,-0.2315,-0.24,-0.2426,-0.2509,-0.2547,-0.2564,-0.2636,-0.2628,-0.2628,-0.2607,-0.2556,-0.251,-0.2467,-0.228,-0.2245,-0.2413,-0.2414,-0.2359,-0.2356,-0.2353,-0.2351,-0.2349,0,-0.2069,-0.2077,-0.2155,-0.2168,-0.2197,-0.2248,-0.2277,-0.2383,-0.2412,-0.2524,-0.2525,-0.2565,-0.2554,-0.2504,-0.2427,-0.2354,-0.2431,-0.2135,-0.2113,-0.2393,-0.2387,-0.2393,-0.2398,-0.1896,-0.1891,-0.1886,-0.1883,0,-0.1982,-0.2011,-0.2036,-0.2068,-0.2098,-0.2137,-0.2189,-0.2219,-0.2332,-0.2372,-0.2414,-0.2426,-0.2402,-0.225,-0.2167,-0.2099,-0.2138,-0.2041,-0.2372,-0.199,-0.1955,-0.195,-0.197,-0.1843,-0.1847,-0.185,-0.1852,-0.1853,-0.19,-0.1896,-0.1928,-0.1944,-0.1978,-0.1993,-0.198,-0.2048,-0.208,-0.2105,-0.2215,-0.2169,-0.2157,-0.1944,-0.1831,-0.1741,-0.1897,-0.1801,-0.1815,-0.1834,-0.1791,-0.1754,-0.1596,-0.1598,-0.16,-0.1602,-0.1604,0,-0.1782,-0.1792,-0.1798,-0.1814,-0.1789,-0.1857,-0.1885,-0.1846,-0.1823,-0.1878,-0.1886,-0.171,-0.1612,-0.161,-0.1414,-0.1366,-0.1355,-0.1299,-0.129,-0.133,-0.1366,-0.13,-0.0973,-0.0971,-0.0969,-0.0968,0,0,-0.1721,-0.1683,-0.1686,-0.1611,-0.1618,-0.1547,-0.1531,-0.1497,-0.1497,-0.1436,-0.1413,-0.1534,-0.1575,-0.1283,-0.1201,-0.1061,-0.1183,-0.0999,-0.1506,-0.1536,-0.1569,-0.1655,-0.1599,0,0,0,0,0]},{"header":{"parameterUnit":"m.s-1","parameterCategory":2,"la1":30.2991,"la2":30.254,"lo1":-89.0895,"lo2":-89.0444,"dy":0.0017,"dx":0.0017,"nx":28,"ny":28,"refTime":"2025-03-20T03:00:00:Z","depth":"2","parameterNumber":3,"parameterNumberName":"V-component_of_CURRENTS"},"data":[0,0,0,0,0,0,0,0,0,0,0,0,0,0,0,0,0,0,0,0,0,0,0,0,0,0,0,0,0,0,0,0,0,0,0,0,0,0,0,0,0,0,0,0,0,0,0,0,0,0,0,0,0,0,0,0,0,0,-0.021,-0.0209,0,-0.0102,-0.01,-0.0099,-0.0022,-0.0022,-0.0021,-0.0021,0.01,0.0102,0.0105,0,0,0,0,0,0,0,0,0,0,0,0,0,-0.0245,-0.0245,-0.021,-0.0208,-0.0207,-0.0102,-0.01,-0.0099,-0.0023,-0.0022,-0.0021,-0.0021,0.0099,0.0102,0.0105,0,0,0,0,0,0,0,0,0,0,0,0,0,-0.0192,-0.0245,-0.021,-0.0158,-0.0152,-0.0102,-0.01,-0.0098,-0.0023,-0.0022,-0.0021,-0.0021,0.0098,0.0102,0.0106,0.0117,0,0,0.0118,0.012,0,0,0,0,0,0,0,0,-0.0195,-0.019,-0.0167,-0.0161,-0.0155,-0.0076,-0.0068,-0.0026,-0.0023,-0.007,-0.0021,-0.002,0.004,0.0049,0.007,0.0123,0.0128,0.0119,0.0121,0.0123,0.0124,0,0,0,0,0,0,0,-0.0199,-0.0194,-0.0165,-0.0165,-0.0158,-0.0104,-0.0096,-0.006,-0.0019,-0.0066,-0.0061,-0.0051,0.0044,0.0066,0.0073,0.013,0.0119,0.0122,0.0125,0.0127,0.0176,0.0175,0,0,0,0,0,0,-0.0222,-0.0198,-0.0169,-0.0162,-0.0175,-0.0104,-0.0096,-0.0101,-0.0019,-0.0007,-0.0052,-0.0048,0.0058,0.0069,0.0078,0.0076,0.0123,0.0127,0.0129,0.0177,0.0176,0.0175,0,0,0,0,0,0,-0.0223,-0.0221,-0.0173,-0.0178,-0.0168,-0.0106,-0.0111,-0.0099,-0.0077,-0.0009,0.0004,-0.0043,0.0059,0.0072,0.0097,0.0082,0.0129,0.0133,0.0179,0.0177,0.0175,0.0085,0,0,0,0,0,0,-0.0225,-0.0222,-0.0233,-0.018,-0.0169,-0.0157,-0.0112,-0.0098,-0.0073,-0.0067,0.0003,0.0015,0.0061,0.009,0.0101,0.0089,0.0136,0.018,0.0178,0.0176,0.009,0.0081,0.0073,0,0,0,0,0,-0.0227,-0.0248,-0.0235,-0.0231,-0.0187,-0.0158,-0.0147,-0.0098,-0.0074,-0.0074,-0.003,0.0013,0.0084,0.0093,0.0106,0.0094,0.0181,0.0179,0.0176,0.0094,0.0083,0.0073,0,0,0,0,0,0,-0.0265,-0.0241,-0.0225,-0.0237,-0.0206,-0.0146,-0.0139,-0.0106,-0.007,-0.0063,0.0002,0.0016,0.0031,0.0071,0.0078,0.01,0.0138,0.0138,0.0071,0.0062,0.0053,0.0054,0.0139,0,0,0,0,0,-0.0282,-0.0294,-0.0255,-0.0264,-0.0253,-0.0198,-0.0179,-0.0149,-0.0108,-0.009,-0.0043,0.0001,0.003,0.0051,0.0084,0.0099,0.0148,0.0098,0.009,0.0083,0.0091,0.0139,0.0136,0.0166,0.0166,0.0166,0,0,-0.0299,-0.0287,-0.0292,-0.0273,-0.0243,-0.0237,-0.0185,-0.0166,-0.0158,-0.0085,-0.0065,-0.0028,0.0025,0.0039,0.0049,0.0072,0.0097,0.0079,0.0073,0.0085,0.0136,0.0134,0.0131,0.0164,0.0165,0.0165,0,0,-0.0333,-0.0329,-0.0346,-0.033,-0.0299,-0.0268,-0.0269,-0.0219,-0.0195,-0.0175,-0.0126,-0.0099,-0.0048,-0.0013,0.0011,-0.0024,0.0047,-0.0019,-0.0052,-0.0006,-0.0008,-0.0008,0.0039,0.0044,-0.0018,-0.0018,-0.0019,0,-0.0352,-0.0371,-0.0344,-0.0352,-0.0344,-0.0291,-0.03,-0.0271,-0.022,-0.0204,-0.0183,-0.0111,-0.0071,-0.0045,-0.0059,-0.0041,-0.0001,-0.0018,-0.0016,-0.0015,-0.0015,0.0035,0.0041,-0.0023,-0.0022,-0.0022,-0.0022,0,-0.0393,-0.0407,-0.0416,-0.0414,-0.0404,-0.0405,-0.0367,-0.0353,-0.032,-0.0282,-0.0251,-0.0195,-0.0147,-0.014,-0.0107,-0.0088,-0.0057,-0.0036,0.0011,-0.0023,0.0031,0.0039,-0.003,-0.0028,-0.0027,-0.0025,0,0,-0.0433,-0.0444,-0.0446,-0.046,-0.0439,-0.0437,-0.0432,-0.0407,-0.0399,-0.0349,-0.033,-0.0282,-0.0239,-0.0209,-0.0165,-0.0125,-0.0094,-0.0082,-0.0078,-0.0033,0.0013,0.0046,0.0059,-0.007,-0.0069,-0.0069,0.0045,0,-0.047,-0.0509,-0.0499,-0.0533,-0.0549,-0.0513,-0.0513,-0.0484,-0.0446,-0.0416,-0.0349,-0.0316,-0.0269,-0.0249,-0.0203,-0.0117,-0.0075,-0.0126,0.0039,0.0044,0.0079,0.0068,0.0051,0.0152,0.0053,0.0054,0.0055,0,-0.0508,-0.0532,-0.0574,-0.0598,-0.0601,-0.061,-0.06,-0.0592,-0.0535,-0.0502,-0.0447,-0.0386,-0.0318,-0.028,-0.0138,-0.0171,-0.0087,-0.002,-0.0013,0.0059,0.0091,0.0172,0.0171,0.007,0.0068,0.0067,0.0066,0,-0.0549,-0.0585,-0.0624,-0.0632,-0.0646,-0.0655,-0.0655,-0.0616,-0.0613,-0.0551,-0.0531,-0.0435,-0.0385,-0.0267,-0.0123,-0.0128,0.0037,0.005,0.016,0.0163,0.0204,0.021,0.0146,0.0146,0.0146,0.0145,0.0145,0,-0.0594,-0.0626,-0.0649,-0.0674,-0.0722,-0.0705,-0.0732,-0.0713,-0.068,-0.0676,-0.0577,-0.0544,-0.0379,-0.0263,-0.0134,0.0044,0.0035,0.0162,0.0197,0.017,0.0171,0.0146,0.0145,0.015,0.0149,0.0148,0.0147,0,-0.0632,-0.0645,-0.0701,-0.0733,-0.0745,-0.0778,-0.0799,-0.0813,-0.0767,-0.0756,-0.0739,-0.0619,-0.0459,-0.0284,-0.0086,0.003,0.0193,0.0254,0.0214,0.0242,0.0292,0.0284,0.0393,0.0396,0.0397,0.0399,0.04,0,-0.0654,-0.0685,-0.0752,-0.0793,-0.0812,-0.0853,-0.0881,-0.0862,-0.0872,-0.08,-0.0799,-0.0648,-0.0532,-0.0221,0.0008,0.0253,0.0244,0.0373,0.0361,0.0295,0.0318,0.0308,0.0298,0.0379,0.038,0.0381,0.0381,0,-0.0699,-0.0722,-0.0772,-0.086,-0.0909,-0.0962,-0.0994,-0.1016,-0.0981,-0.0948,-0.0873,-0.0771,-0.0466,-0.0196,0.0122,0.0262,0.0335,0.0398,0.0352,0.0312,0.0289,0.0309,0.0298,0.0389,0.0388,0.0387,0.0387,0.0387,-0.0728,-0.078,-0.0848,-0.0928,-0.0992,-0.1054,-0.109,-0.1103,-0.1106,-0.1038,-0.0936,-0.075,-0.0482,-0.0028,0.021,0.0434,0.0417,0.048,0.0474,0.0469,0.044,0.0421,0.054,0.054,0.054,0.054,0.054,0,-0.0762,-0.0825,-0.091,-0.1007,-0.1083,-0.1099,-0.1154,-0.1161,-0.1156,-0.1053,-0.0945,-0.0637,-0.0317,-0.003,0.0331,0.0539,0.0524,0.0576,0.0514,0.0505,0.0498,0.0468,0.0578,0.0578,0.0579,0.058,0,0,-0.0784,-0.0872,-0.0921,-0.1056,-0.1123,-0.1198,-0.1225,-0.1211,-0.1142,-0.1035,-0.0886,-0.068,-0.032,-0.0059,0.0211,0.0408,0.0402,0.0429,0.0378,0.0265,0.0255,0.0423,0.0365,0,0,0,0,0]}],[{"header":{"parameterUnit":"m.s-1","parameterCategory":2,"la1":30.2991,"la2":30.254,"lo1":-89.0895,"lo2":-89.0444,"dy":0.0017,"dx":0.0017,"nx":28,"ny":28,"refTime":"2025-03-20T03:00:00:Z","depth":"4","parameterNumber":2,"parameterNumberName":"U-component_of_CURRENTS"},"data":[0,0,0,0,0,0,0,0,0,0,0,0,0,0,0,0,0,0,0,0,0,0,0,0,0,0,0,0,0,0,0,0,0,0,0,0,0,0,0,0,0,0,0,0,0,0,0,0,0,0,0,0,0,0,0,0,0,0,-0.1647,-0.1648,0,-0.1708,-0.1708,-0.1708,-0.1711,-0.1711,-0.1711,-0.1711,-0.1722,-0.1723,-0.1723,0,0,0,0,0,0,0,0,0,0,0,0,0,-0.1516,-0.1518,-0.1647,-0.1648,-0.165,-0.1708,-0.1708,-0.1709,-0.1711,-0.1711,-0.1711,-0.1711,-0.1722,-0.1723,-0.1723,0,0,0,0,0,0,0,0,0,0,0,0,0,-0.1569,-0.1518,-0.1647,-0.1662,-0.1665,-0.1708,-0.1708,-0.1709,-0.1711,-0.1711,-0.1711,-0.1711,-0.1722,-0.1723,-0.1723,-0.1734,0,0,-0.1726,-0.1726,0,0,0,0,0,0,0,0,-0.1566,-0.1573,-0.1659,-0.1661,-0.1664,-0.1707,-0.1667,-0.1717,-0.1712,-0.1688,-0.1711,-0.171,-0.1716,-0.1718,-0.1722,-0.1735,-0.1735,-0.1726,-0.1726,-0.1727,-0.1727,0,0,0,0,0,0,0,-0.1562,-0.1571,-0.1666,-0.166,-0.1664,-0.166,-0.1667,-0.1676,-0.1698,-0.169,-0.1692,-0.1707,-0.1717,-0.1722,-0.1723,-0.1735,-0.1726,-0.1726,-0.1727,-0.1727,-0.1849,-0.1852,0,0,0,0,0,0,-0.1568,-0.1567,-0.1664,-0.1668,-0.162,-0.1663,-0.1671,-0.1689,-0.1699,-0.1702,-0.1708,-0.1707,-0.1721,-0.1722,-0.1723,-0.1805,-0.1727,-0.1727,-0.1728,-0.1847,-0.185,-0.1853,0,0,0,0,0,0,-0.1565,-0.1576,-0.1661,-0.1623,-0.1634,-0.1667,-0.1686,-0.169,-0.1724,-0.1714,-0.1715,-0.1741,-0.172,-0.1722,-0.176,-0.1803,-0.1728,-0.1728,-0.1843,-0.1848,-0.1852,-0.1925,0,0,0,0,0,0,-0.1561,-0.1574,-0.1597,-0.1624,-0.1637,-0.1705,-0.1688,-0.1692,-0.1735,-0.1736,-0.1743,-0.1742,-0.172,-0.1759,-0.1761,-0.1803,-0.1729,-0.184,-0.1845,-0.185,-0.1919,-0.1931,-0.1942,0,0,0,0,0,-0.1556,-0.1579,-0.1598,-0.161,-0.1665,-0.1707,-0.1714,-0.1731,-0.1738,-0.1758,-0.1769,-0.1743,-0.1794,-0.1762,-0.1763,-0.1806,-0.1837,-0.1844,-0.185,-0.1914,-0.1929,-0.1941,0,0,0,0,0,0,-0.1534,-0.1584,-0.1603,-0.1643,-0.1685,-0.171,-0.1733,-0.1754,-0.178,-0.1784,-0.1771,-0.1772,-0.1829,-0.1813,-0.1778,-0.1861,-0.1815,-0.1822,-0.1864,-0.1877,-0.1888,-0.1864,-0.1729,0,0,0,0,0,-0.1543,-0.1575,-0.1624,-0.166,-0.1681,-0.1717,-0.1741,-0.1761,-0.1786,-0.1798,-0.1812,-0.1828,-0.1853,-0.186,-0.188,-0.1915,-0.1885,-0.1949,-0.196,-0.197,-0.1954,-0.1954,-0.1963,-0.1874,-0.1874,-0.1874,0,0,-0.1549,-0.1579,-0.1601,-0.1659,-0.1687,-0.1725,-0.1729,-0.1777,-0.1814,-0.1795,-0.1852,-0.1876,-0.1877,-0.1924,-0.1947,-0.1912,-0.1985,-0.1978,-0.1985,-0.1964,-0.1961,-0.1969,-0.1977,-0.1878,-0.1877,-0.1877,0,0,-0.156,-0.1601,-0.1628,-0.1666,-0.1725,-0.1749,-0.1774,-0.1828,-0.1857,-0.1914,-0.1921,-0.1967,-0.2002,-0.2011,-0.2016,-0.2103,-0.2056,-0.2127,-0.2146,-0.2147,-0.2153,-0.2158,-0.2144,-0.2147,-0.2117,-0.2118,-0.2118,0,-0.1567,-0.1606,-0.1644,-0.1678,-0.1714,-0.1765,-0.1804,-0.1842,-0.1908,-0.1935,-0.1942,-0.2024,-0.2036,-0.2079,-0.2114,-0.2125,-0.211,-0.2089,-0.2158,-0.2162,-0.2165,-0.215,-0.2152,-0.2122,-0.2121,-0.2121,-0.212,0,-0.1588,-0.1633,-0.1653,-0.1712,-0.1756,-0.1801,-0.1861,-0.1915,-0.1963,-0.1998,-0.2076,-0.2102,-0.2138,-0.2171,-0.2164,-0.2214,-0.2191,-0.2181,-0.2112,-0.2178,-0.2159,-0.2159,-0.2128,-0.2126,-0.2125,-0.2124,0,0,-0.157,-0.1652,-0.1663,-0.1698,-0.1781,-0.1817,-0.1886,-0.1957,-0.2,-0.2072,-0.2121,-0.219,-0.221,-0.2219,-0.2237,-0.2241,-0.2272,-0.2222,-0.222,-0.2188,-0.2264,-0.2116,-0.2102,-0.2271,-0.2271,-0.2271,-0.2243,0,-0.158,-0.1638,-0.1684,-0.1755,-0.179,-0.1862,-0.192,-0.1992,-0.2051,-0.2113,-0.2157,-0.2214,-0.2226,-0.2254,-0.2266,-0.2278,-0.2276,-0.2279,-0.2221,-0.2219,-0.2062,-0.2098,-0.2273,-0.2244,-0.2244,-0.2244,-0.2244,0,-0.1578,-0.1623,-0.1686,-0.1776,-0.18,-0.1855,-0.1952,-0.2011,-0.2099,-0.2144,-0.22,-0.2234,-0.228,-0.2275,-0.2294,-0.2296,-0.2283,-0.2278,-0.2277,-0.2103,-0.2071,-0.2164,-0.2244,-0.2244,-0.2244,-0.2244,-0.2244,0,-0.1526,-0.1622,-0.1672,-0.1705,-0.1813,-0.1864,-0.1928,-0.2023,-0.2073,-0.2162,-0.2198,-0.2254,-0.2284,-0.2286,-0.2287,-0.2295,-0.2282,-0.2287,-0.2136,-0.2126,-0.2233,-0.2228,-0.2279,-0.2279,-0.2279,-0.2279,-0.2279,0,-0.1497,-0.1542,-0.1658,-0.1685,-0.1756,-0.1843,-0.1921,-0.1989,-0.2082,-0.212,-0.2207,-0.2226,-0.2288,-0.2292,-0.2285,-0.2199,-0.2277,-0.2127,-0.2103,-0.227,-0.2269,-0.2234,-0.2229,-0.2278,-0.2278,-0.2279,-0.2279,0,-0.1417,-0.1496,-0.156,-0.1686,-0.1729,-0.1778,-0.1907,-0.1947,-0.2052,-0.2101,-0.2128,-0.2212,-0.2211,-0.2242,-0.224,-0.2173,-0.2123,-0.2072,-0.2239,-0.2227,-0.1969,-0.1969,-0.1896,-0.1891,-0.1886,-0.1882,-0.1879,0,-0.1374,-0.1399,-0.1538,-0.1577,-0.1637,-0.1729,-0.1781,-0.1912,-0.1944,-0.2063,-0.2057,-0.2111,-0.2144,-0.2018,-0.2071,-0.2024,-0.2005,-0.196,-0.197,-0.1943,-0.1928,-0.1935,-0.1942,-0.1871,-0.187,-0.1869,-0.1867,0,-0.1284,-0.1347,-0.14,-0.1481,-0.155,-0.1615,-0.1696,-0.171,-0.1835,-0.1951,-0.193,-0.1926,-0.1917,-0.191,-0.1882,-0.1854,-0.1981,-0.1911,-0.1921,-0.193,-0.1912,-0.1903,-0.1915,-0.1851,-0.1853,-0.1855,-0.1856,0,-0.1213,-0.1229,-0.1306,-0.1363,-0.1441,-0.1463,-0.1535,-0.1567,-0.1622,-0.1756,-0.1739,-0.1804,-0.1888,-0.1819,-0.1794,-0.1752,-0.1733,-0.1673,-0.1696,-0.1714,-0.1668,-0.1619,-0.1432,0,0,0,0,0,-0.113,-0.1134,-0.1177,-0.1235,-0.1304,-0.1348,-0.1452,-0.1524,-0.1647,-0.1582,-0.166,-0.1644,-0.1617,-0.1653,-0.1571,-0.1711,-0.1739,-0.1607,-0.1682,-0.176,-0.1779,-0.1741,0,0,0,0,0,0,-0.1075,-0.1108,-0.1129,-0.1106,-0.1116,-0.1177,-0.1237,-0.133,-0.1306,-0.1437,-0.1431,-0.1529,-0.1527,-0.1633,-0.1531,-0.154,-0.1549,-0.1658,-0.1653,-0.1749,-0.1766,-0.1781,-0.1749,0,0,0,0,0]},{"header":{"parameterUnit":"m.s-1","parameterCategory":2,"la1":30.2991,"la2":30.254,"lo1":-89.0895,"lo2":-89.0444,"dy":0.0017,"dx":0.0017,"nx":28,"ny":28,"refTime":"2025-03-20T03:00:00:Z","depth":"4","parameterNumber":3,"parameterNumberName":"V-component_of_CURRENTS"},"data":[0,0,0,0,0,0,0,0,0,0,0,0,0,0,0,0,0,0,0,0,0,0,0,0,0,0,0,0,0,0,0,0,0,0,0,0,0,0,0,0,0,0,0,0,0,0,0,0,0,0,0,0,0,0,0,0,0,0,-0.0141,-0.0141,0,-0.0065,-0.0064,-0.0063,0.0,0.0001,0.0001,0.0001,0.0106,0.0108,0.011,0,0,0,0,0,0,0,0,0,0,0,0,0,-0.0154,-0.0154,-0.0141,-0.0141,-0.014,-0.0066,-0.0064,-0.0063,0.0,0.0001,0.0001,0.0002,0.0105,0.0108,0.0111,0,0,0,0,0,0,0,0,0,0,0,0,0,-0.0118,-0.0155,-0.0141,-0.0101,-0.0097,-0.0066,-0.0064,-0.0063,-0.0,0.0001,0.0001,0.0002,0.0104,0.0108,0.0111,0.0118,0,0,0.0122,0.0123,0,0,0,0,0,0,0,0,-0.0121,-0.0118,-0.0108,-0.0104,-0.0099,-0.0043,-0.0031,-0.0002,-0.0,-0.0034,0.0001,0.0002,0.0056,0.0064,0.008,0.0123,0.0128,0.0122,0.0124,0.0126,0.0127,0,0,0,0,0,0,0,-0.0123,-0.012,-0.0109,-0.0107,-0.0102,-0.006,-0.0055,-0.0024,0.0008,-0.0031,-0.0027,-0.0023,0.006,0.0076,0.0083,0.0129,0.0122,0.0125,0.0127,0.0129,0.0171,0.017,0,0,0,0,0,0,-0.0142,-0.0123,-0.0111,-0.0107,-0.0111,-0.0061,-0.0055,-0.006,0.0008,0.0018,-0.0023,-0.002,0.007,0.0078,0.0086,0.0084,0.0126,0.0129,0.0131,0.0172,0.017,0.0169,0,0,0,0,0,0,-0.0143,-0.0142,-0.0114,-0.0114,-0.0108,-0.0063,-0.0068,-0.0059,-0.0043,0.0013,0.0024,-0.0017,0.0071,0.0081,0.0105,0.0089,0.0131,0.0134,0.0173,0.0171,0.017,0.0089,0,0,0,0,0,0,-0.0144,-0.0143,-0.0153,-0.0116,-0.0109,-0.0106,-0.0069,-0.0058,-0.0042,-0.0037,0.0022,0.0033,0.0072,0.0099,0.0108,0.0095,0.0136,0.0174,0.0172,0.017,0.0093,0.0085,0.0079,0,0,0,0,0,-0.0145,-0.0162,-0.0154,-0.0152,-0.0124,-0.0107,-0.0099,-0.0062,-0.0043,-0.0043,-0.0005,0.0031,0.0094,0.0101,0.0112,0.0099,0.0175,0.0173,0.0171,0.0097,0.0087,0.0079,0,0,0,0,0,0,-0.0168,-0.0156,-0.0147,-0.0159,-0.014,-0.0097,-0.0093,-0.0069,-0.0038,-0.0033,0.0022,0.0035,0.0048,0.0082,0.0089,0.0105,0.0139,0.0139,0.0079,0.007,0.0063,0.006,0.0139,0,0,0,0,0,-0.0182,-0.0193,-0.017,-0.018,-0.0174,-0.0136,-0.0124,-0.0101,-0.007,-0.0055,-0.0016,0.0021,0.0046,0.0065,0.0093,0.0105,0.0146,0.0102,0.0095,0.0088,0.0093,0.0128,0.0124,0.0162,0.0162,0.0162,0,0,-0.0193,-0.0188,-0.0194,-0.0186,-0.0166,-0.0166,-0.0126,-0.0116,-0.0113,-0.0049,-0.0035,-0.0003,0.0042,0.0053,0.0062,0.0082,0.0098,0.0086,0.008,0.0088,0.0125,0.0122,0.0119,0.0161,0.0161,0.0161,0,0,-0.0219,-0.022,-0.0235,-0.0228,-0.0211,-0.0191,-0.0193,-0.016,-0.0143,-0.0128,-0.0087,-0.0066,-0.0022,0.0006,0.0026,-0.0005,0.0054,0.0001,-0.0032,0.0001,-0.0002,-0.0003,0.004,0.0043,0.0001,0.0,0.0,0,-0.0232,-0.0251,-0.0235,-0.0246,-0.0245,-0.0208,-0.0221,-0.0201,-0.0164,-0.0154,-0.0136,-0.0079,-0.0044,-0.0026,-0.0038,-0.0021,0.0013,-0.0003,-0.0008,-0.0009,-0.0009,0.0036,0.004,-0.0004,-0.0003,-0.0003,-0.0002,0,-0.0265,-0.0282,-0.029,-0.0297,-0.0294,-0.03,-0.0278,-0.0271,-0.0248,-0.0222,-0.0202,-0.0155,-0.0117,-0.0111,-0.0081,-0.0072,-0.0042,-0.0025,0.0014,-0.0018,0.0031,0.0037,-0.001,-0.0008,-0.0007,-0.0006,0,0,-0.0291,-0.0311,-0.0315,-0.0331,-0.0324,-0.0327,-0.033,-0.032,-0.0319,-0.0283,-0.0275,-0.0236,-0.0203,-0.0178,-0.0141,-0.0112,-0.009,-0.0073,-0.0069,-0.0029,-0.0005,0.0001,0.0008,-0.0073,-0.0072,-0.0072,0.0029,0,-0.032,-0.0358,-0.0358,-0.0394,-0.0411,-0.0392,-0.04,-0.0385,-0.0361,-0.0345,-0.0294,-0.0272,-0.0231,-0.0216,-0.0182,-0.011,-0.0077,-0.0118,0.0021,0.0025,0.0034,0.0014,-0.007,0.0034,0.0035,0.0037,0.0037,0,-0.035,-0.0375,-0.0417,-0.0448,-0.0454,-0.047,-0.0476,-0.0477,-0.0444,-0.0422,-0.0385,-0.0338,-0.0287,-0.0254,-0.0139,-0.0165,-0.0093,-0.0036,-0.0031,0.001,0.0042,0.0075,0.0049,0.0048,0.0047,0.0046,0.0046,0,-0.0375,-0.0416,-0.0456,-0.0466,-0.0492,-0.0509,-0.0518,-0.05,-0.0506,-0.0468,-0.0458,-0.0385,-0.0349,-0.0252,-0.0131,-0.0133,0.0,0.0014,0.0089,0.0091,0.0094,0.0095,0.0089,0.0089,0.0089,0.0088,0.0088,0,-0.0404,-0.0438,-0.0475,-0.0498,-0.055,-0.0548,-0.0585,-0.0578,-0.0567,-0.0571,-0.05,-0.0478,-0.0348,-0.0254,-0.0142,-0.0005,-0.0004,0.0085,0.0114,0.0056,0.0052,0.0098,0.0098,0.0092,0.0091,0.0091,0.009,0,-0.0422,-0.0445,-0.05,-0.0545,-0.0565,-0.0601,-0.0643,-0.0661,-0.0639,-0.0641,-0.0631,-0.0544,-0.0416,-0.0274,-0.011,-0.0024,0.0108,0.0155,0.009,0.0114,0.0182,0.0177,0.025,0.0251,0.0252,0.0252,0.0253,0,-0.0432,-0.0461,-0.054,-0.0583,-0.061,-0.0661,-0.0696,-0.07,-0.0713,-0.0676,-0.0676,-0.0566,-0.0487,-0.0244,-0.0101,0.0117,0.0143,0.0211,0.0189,0.0176,0.0198,0.019,0.0184,0.0254,0.0254,0.0255,0.0255,0,-0.0453,-0.0484,-0.0531,-0.0624,-0.0681,-0.0739,-0.0782,-0.0798,-0.0788,-0.0772,-0.0697,-0.0571,-0.0427,-0.0244,-0.0075,0.0077,0.0166,0.0221,0.022,0.0199,0.0183,0.0201,0.0194,0.0258,0.0257,0.0257,0.0257,0,-0.0464,-0.0508,-0.0577,-0.0655,-0.0733,-0.0791,-0.0813,-0.0816,-0.0821,-0.0767,-0.0743,-0.058,-0.049,-0.0265,-0.011,0.0042,0.0078,0.012,0.0125,0.0123,0.0052,0.001,0.0058,0,0,0,0,0,-0.0469,-0.0523,-0.0604,-0.0691,-0.0769,-0.0811,-0.0859,-0.0867,-0.0855,-0.0806,-0.077,-0.0629,-0.0392,-0.0295,-0.014,-0.0102,0.0095,0.0083,0.0143,0.0274,0.027,0.0208,0,0,0,0,0,0,-0.0475,-0.055,-0.0601,-0.07,-0.0761,-0.0839,-0.0871,-0.0866,-0.0829,-0.0795,-0.0669,-0.0595,-0.0366,-0.0475,-0.0137,-0.0092,-0.0034,0.0196,0.0199,0.0275,0.0272,0.027,0.0205,0,0,0,0,0]}]]